timestamp,surface_pressure_avg,surface_temp_avg,battery_voltage,lat,long
2023-08-18 00:09:00+00:00,335.3929,17.4,12.41,47.84626,-54.09684
2023-08-18 00:19:00+00:00,337.3696,17.44,12.33,47.84626,-54.09684
2023-08-18 00:29:00+00:00,340.1113,17.49,12.33,47.84626,-54.09684
2023-08-18 00:39:00+00:00,343.8796,17.5,12.33,47.84626,-54.09684
2023-08-18 00:49:00+00:00,345.423,17.5,12.33,47.84626,-54.09684
2023-08-18 00:59:00+00:00,347.273,17.52,12.33,47.84626,-54.09684
2023-08-18 01:09:00+00:00,346.7079,17.58,12.33,47.84626,-54.09684
2023-08-18 01:19:00+00:00,343.3231,17.6,12.33,47.84626,-54.09684
2023-08-18 01:29:00+00:00,341.05300000000005,17.6,12.33,47.84626,-54.09684
2023-08-18 01:39:00+00:00,339.3962,17.6,12.33,47.84626,-54.09684
2023-08-18 01:49:00+00:00,335.6863,17.6,12.33,47.84626,-54.09684
2023-08-18 01:59:00+00:00,329.1879,17.6,12.33,47.84626,-54.09684
2023-08-18 02:09:00+00:00,325.5213,17.6,12.33,47.84626,-54.09684
2023-08-18 02:19:00+00:00,321.2946,17.6,12.33,47.84626,-54.09684
2023-08-18 02:29:00+00:00,313.3997,17.6,12.33,47.84626,-54.09684
2023-08-18 02:39:00+00:00,309.4113,17.6,12.33,47.84626,-54.09684
2023-08-18 02:49:00+00:00,308.808,17.6,12.33,47.84626,-54.09684
2023-08-18 02:59:00+00:00,304.7247,17.6,12.33,47.84626,-54.09684
2023-08-18 03:09:00+00:00,297.118,17.6,12.33,47.84626,-54.09684
2023-08-18 03:19:00+00:00,291.6497,17.6,12.25,47.84626,-54.09684
2023-08-18 03:29:00+00:00,288.3864,17.6,12.25,47.84626,-54.09684
2023-08-18 03:39:00+00:00,281.2513,17.65,12.25,47.84626,-54.09684
2023-08-18 03:49:00+00:00,271.4514,17.69,12.25,47.84626,-54.09684
2023-08-18 03:59:00+00:00,263.1548,17.7,12.25,47.84626,-54.09684
2023-08-18 04:09:00+00:00,258.4464,17.73,12.25,47.84626,-54.09684
2023-08-18 04:19:00+00:00,251.4764,17.8,12.25,47.84626,-54.09684
2023-08-18 04:29:00+00:00,243.8147,17.8,12.25,47.84626,-54.09684
2023-08-18 04:39:00+00:00,235.8381,17.8,12.25,47.84626,-54.09684
2023-08-18 04:49:00+00:00,226.2598,17.82,12.25,47.84626,-54.09684
2023-08-18 04:59:00+00:00,219.7814,17.86,12.25,47.84626,-54.09684
2023-08-18 05:09:00+00:00,215.8531,17.89,12.25,47.84626,-54.09684
2023-08-18 05:19:00+00:00,207.1998,17.9,12.25,47.84626,-54.09684
2023-08-18 05:29:00+00:00,197.9431,17.9,12.25,47.84626,-54.09684
2023-08-18 05:39:00+00:00,192.7065,17.9,12.25,47.84626,-54.09684
2023-08-18 05:49:00+00:00,187.8981,17.93,12.25,47.84626,-54.09684
2023-08-18 05:59:00+00:00,180.4481,17.95,12.25,47.84626,-54.09684
2023-08-18 06:09:00+00:00,177.7797,17.96,12.25,47.84626,-54.09684
2023-08-18 06:19:00+00:00,178.9565,17.97,12.25,47.84626,-54.09684
2023-08-18 06:29:00+00:00,175.6031,17.98,12.25,47.84626,-54.09684
2023-08-18 06:39:00+00:00,172.9415,17.98,12.25,47.84626,-54.09684
2023-08-18 06:49:00+00:00,174.8214,17.97,12.25,47.84626,-54.09684
2023-08-18 06:59:00+00:00,177.6098,17.96,12.25,47.84626,-54.09684
2023-08-18 07:09:00+00:00,177.5798,17.96,12.25,47.84626,-54.09684
2023-08-18 07:19:00+00:00,177.8748,17.96,12.25,47.84626,-54.09684
2023-08-18 07:29:00+00:00,181.9981,17.97,12.25,47.84626,-54.09684
2023-08-18 07:39:00+00:00,186.7098,17.97,12.25,47.84626,-54.09684
2023-08-18 07:49:00+00:00,189.3598,17.98,12.25,47.84626,-54.09684
2023-08-18 07:59:00+00:00,194.4331,17.97,12.25,47.84626,-54.09684
2023-08-18 08:09:00+00:00,200.1682,17.98,12.25,47.84626,-54.09684
2023-08-18 08:19:00+00:00,200.183,17.99,12.25,47.84626,-54.09684
2023-08-18 08:29:00+00:00,202.2415,17.99,12.25,47.84626,-54.09684
2023-08-18 08:39:00+00:00,209.4531,17.98,12.25,47.84626,-54.09684
2023-08-18 08:49:00+00:00,214.1698,17.98,12.25,47.84626,-54.09684
2023-08-18 08:59:00+00:00,214.7014,17.99,12.25,47.84626,-54.09684
2023-08-18 09:09:00+00:00,220.3315,17.98,12.25,47.84626,-54.09684
2023-08-18 09:19:00+00:00,228.0081,17.98,12.25,47.84626,-54.09684
2023-08-18 09:29:00+00:00,230.9448,17.98,12.25,47.84626,-54.09684
2023-08-18 09:39:00+00:00,230.4148,17.99,12.25,47.84626,-54.09684
2023-08-18 09:49:00+00:00,236.0614,17.97,12.25,47.84626,-54.09684
2023-08-18 09:59:00+00:00,244.9231,17.96,12.25,47.84626,-54.09684
2023-08-18 10:09:00+00:00,250.8548,17.97,12.25,47.84626,-54.09684
2023-08-18 10:19:00+00:00,254.2498,17.98,12.41,47.84626,-54.09684
2023-08-18 10:29:00+00:00,260.8831,17.98,12.41,47.84626,-54.09684
2023-08-18 10:39:00+00:00,268.9114,17.97,12.41,47.84626,-54.09684
2023-08-18 10:49:00+00:00,275.0648,17.96,12.41,47.84626,-54.09684
2023-08-18 10:59:00+00:00,279.7864,17.95,12.41,47.84626,-54.09684
2023-08-18 11:09:00+00:00,290.2463,17.97,12.41,47.84626,-54.09684
2023-08-18 11:19:00+00:00,298.95799999999997,17.97,12.65,47.84626,-54.09684
2023-08-18 11:29:00+00:00,303.7697,17.98,12.65,47.84626,-54.09684
2023-08-18 11:39:00+00:00,304.8514,17.98,12.65,47.84626,-54.09684
2023-08-18 11:49:00+00:00,312.653,17.98,12.65,47.84626,-54.09684
2023-08-18 11:59:00+00:00,321.4413,17.96,12.65,47.84626,-54.09684
2023-08-18 12:09:00+00:00,326.488,17.9,12.65,47.84626,-54.09684
2023-08-18 12:19:01+00:00,324.2596,17.9,12.73,47.84626,-54.09684
2023-08-18 12:29:01+00:00,327.0563,17.9,12.73,47.84626,-54.09684
2023-08-18 12:39:01+00:00,333.6547,17.9,12.73,47.84626,-54.09684
2023-08-18 12:49:01+00:00,337.2863,17.9,12.73,47.84626,-54.09684
2023-08-18 12:59:01+00:00,335.8413,17.9,12.73,47.84626,-54.09684
2023-08-18 13:09:01+00:00,337.583,17.9,12.73,47.84626,-54.09684
2023-08-18 13:19:00+00:00,334.968,17.9,12.81,47.84626,-54.09684
2023-08-18 13:29:00+00:00,330.9346,17.9,12.81,47.84626,-54.09684
2023-08-18 13:39:00+00:00,327.778,17.9,12.81,47.84626,-54.09684
2023-08-18 13:49:00+00:00,328.5080000000001,17.9,12.81,47.84626,-54.09684
2023-08-18 13:59:00+00:00,322.4547,17.9,12.81,47.84626,-54.09684
2023-08-18 14:09:00+00:00,316.113,17.95,12.81,47.84626,-54.09684
2023-08-18 14:19:00+00:00,312.4247,18.0,12.81,47.84626,-54.09684
2023-08-18 14:29:00+00:00,306.8797,18.0,12.81,47.84626,-54.09684
2023-08-18 14:39:00+00:00,298.408,18.0,12.81,47.84626,-54.09684
2023-08-18 14:49:00+00:00,292.098,18.0,12.81,47.84626,-54.09684
2023-08-18 14:59:00+00:00,288.0314,18.0,12.81,47.84626,-54.09684
2023-08-18 15:09:00+00:00,282.5447,18.0,12.81,47.84626,-54.09684
2023-08-18 15:19:00+00:00,276.6097,18.0,12.73,47.84626,-54.09684
2023-08-18 15:29:00+00:00,273.0897,18.0,12.73,47.84626,-54.09684
2023-08-18 15:39:00+00:00,268.7481,18.0,12.73,47.84626,-54.09684
2023-08-18 15:49:00+00:00,258.8531,18.0,12.73,47.84626,-54.09684
2023-08-18 15:59:00+00:00,252.5398,18.03,12.73,47.84626,-54.09684
2023-08-18 16:09:00+00:00,249.0298,18.08,12.73,47.84626,-54.09684
2023-08-18 16:19:01+00:00,242.7747,18.09,12.73,47.84626,-54.09684
2023-08-18 16:29:01+00:00,231.7415,18.08,12.73,47.84626,-54.09684
2023-08-18 16:39:01+00:00,226.3581,18.0,12.73,47.84626,-54.09684
2023-08-18 16:49:01+00:00,224.1547,18.0,12.73,47.84626,-54.09684
2023-08-18 16:59:01+00:00,218.3332,18.0,12.73,47.84626,-54.09684
2023-08-18 17:09:01+00:00,208.6731,18.0,12.73,47.84626,-54.09684
2023-08-18 17:19:01+00:00,201.7831,18.0,12.65,47.84626,-54.09684
2023-08-18 17:29:01+00:00,198.7431,18.0,12.65,47.84626,-54.09684
2023-08-18 17:39:01+00:00,192.8948,18.0,12.65,47.84626,-54.09684
2023-08-18 17:49:01+00:00,185.4281,18.0,12.65,47.84626,-54.09684
2023-08-18 17:59:01+00:00,183.6215,17.99,12.65,47.84626,-54.09684
2023-08-18 18:09:01+00:00,180.9932,18.0,12.65,47.84626,-54.09684
2023-08-18 18:19:00+00:00,173.6982,18.09,12.65,47.84626,-54.09684
2023-08-18 18:29:00+00:00,171.3732,18.1,12.65,47.84626,-54.09684
2023-08-18 18:39:00+00:00,172.8881,18.1,12.65,47.84626,-54.09684
2023-08-18 18:49:00+00:00,173.0365,18.1,12.65,47.84626,-54.09684
2023-08-18 18:59:00+00:00,173.3498,18.1,12.65,47.84626,-54.09684
2023-08-18 19:09:00+00:00,173.2065,18.1,12.65,47.84626,-54.09684
2023-08-18 19:19:00+00:00,175.2515,18.1,12.57,47.84626,-54.09684
2023-08-18 19:29:00+00:00,178.3615,18.1,12.57,47.84626,-54.09684
2023-08-18 19:39:00+00:00,182.4215,18.14,12.57,47.84626,-54.09684
2023-08-18 19:49:00+00:00,187.1131,18.15,12.57,47.84626,-54.09684
2023-08-18 19:59:00+00:00,191.3498,18.15,12.57,47.84626,-54.09684
2023-08-18 20:09:00+00:00,195.7464,18.17,12.57,47.84626,-54.09684
2023-08-18 20:19:01+00:00,200.5848,18.17,12.49,47.84626,-54.09684
2023-08-18 20:29:01+00:00,204.5447,18.16,12.49,47.84626,-54.09684
2023-08-18 20:39:01+00:00,210.2664,18.12,12.49,47.84626,-54.09684
2023-08-18 20:49:01+00:00,217.1497,18.11,12.49,47.84626,-54.09684
2023-08-18 20:59:01+00:00,221.7914,18.1,12.49,47.84626,-54.09684
2023-08-18 21:09:01+00:00,224.7114,18.1,12.49,47.84626,-54.09684
2023-08-18 21:19:00+00:00,229.1764,18.1,12.49,47.84626,-54.09684
2023-08-18 21:29:00+00:00,236.2831,18.1,12.49,47.84626,-54.09684
2023-08-18 21:39:00+00:00,239.9831,18.1,12.49,47.84626,-54.09684
2023-08-18 21:49:00+00:00,242.1564,18.1,12.49,47.84626,-54.09684
2023-08-18 21:59:00+00:00,246.8697,18.1,12.49,47.84626,-54.09684
2023-08-18 22:09:00+00:00,253.4865,18.11,12.49,47.84626,-54.09684
2023-08-18 22:19:00+00:00,255.2147,18.11,12.41,47.84626,-54.09684
2023-08-18 22:29:00+00:00,256.7314,18.11,12.41,47.84626,-54.09684
2023-08-18 22:39:00+00:00,263.8181,18.1,12.41,47.84626,-54.09684
2023-08-18 22:49:00+00:00,270.0647,18.1,12.41,47.84626,-54.09684
2023-08-18 22:59:00+00:00,273.8064,18.1,12.41,47.84626,-54.09684
2023-08-18 23:09:00+00:00,281.3147,18.1,12.41,47.84626,-54.09684
2023-08-18 23:19:00+00:00,293.2263,18.1,12.41,47.84626,-54.09684
2023-08-18 23:29:00+00:00,299.0164,18.1,12.41,47.84626,-54.09684
2023-08-18 23:39:00+00:00,303.463,18.1,12.41,47.84626,-54.09684
2023-08-18 23:49:00+00:00,313.8563,18.1,12.41,47.84626,-54.09684
2023-08-18 23:59:00+00:00,321.7263,18.1,12.41,47.84626,-54.09684
